QPF
0.00 0.00 0.00 0.00 0.01 0.01 0.01 0.02 0.03 0.04 0.05 0.05 0.02 0.01 0.02 0.02 0.02 0.02 0.02 0.02 0.02 0.03 0.03 0.04 0.04 0.04 0.05 0.06 0.06 0.04 0.03 0.04 0.05 0.06 0.05 0.04 0.02 0.02 0.02 0.02 0.02 0.02 0.02
0.00 0.00 0.00 0.01 0.01 0.01 0.01 0.02 0.03 0.03 0.04 0.04 0.03 0.03 0.04 0.04 0.05 0.04 0.04 0.03 0.03 0.04 0.04 0.04 0.04 0.05 0.05 0.05 0.06 0.05 0.04 0.04 0.06 0.06 0.05 0.04 0.02 0.02 0.02 0.02 0.02 0.02 0.02
0.00 0.01 0.01 0.01 0.01 0.01 0.01 0.02 0.02 0.03 0.04 0.03 0.03 0.03 0.04 0.06 0.09 0.07 0.05 0.05 0.05 0.06 0.08 0.07 0.06 0.05 0.05 0.05 0.06 0.06 0.05 0.05 0.06 0.07 0.07 0.06 0.04 0.03 0.04 0.04 0.04 0.03 0.03
0.00 0.00 0.01 0.01 0.01 0.01 0.02 0.02 0.03 0.04 0.04 0.03 0.02 0.02 0.03 0.05 0.08 0.07 0.06 0.06 0.07 0.08 0.09 0.11 0.10 0.07 0.07 0.07 0.08 0.07 0.07 0.08 0.06 0.06 0.07 0.07 0.05 0.04 0.04 0.05 0.07 0.06 0.03
0.00 0.00 0.01 0.01 0.02 0.02 0.03 0.03 0.04 0.04 0.04 0.05 0.04 0.03 0.03 0.04 0.04 0.04 0.04 0.06 0.09 0.09 0.08 0.10 0.11 0.11 0.09 0.09 0.11 0.13 0.13 0.12 0.09 0.07 0.07 0.07 0.05 0.04 0.04 0.06 0.09 0.10 0.05
0.00 0.01 0.01 0.01 0.02 0.02 0.03 0.04 0.05 0.06 0.06 0.07 0.07 0.06 0.04 0.05 0.05 0.05 0.05 0.06 0.07 0.09 0.08 0.08 0.09 0.10 0.10 0.11 0.14 0.16 0.15 0.12 0.10 0.08 0.09 0.09 0.08 0.07 0.06 0.06 0.07 0.10 0.08
0.00 0.01 0.01 0.01 0.02 0.03 0.04 0.04 0.03 0.04 0.05 0.07 0.09 0.08 0.07 0.06 0.05 0.05 0.06 0.07 0.08 0.07 0.05 0.05 0.05 0.05 0.07 0.08 0.11 0.12 0.09 0.08 0.08 0.07 0.07 0.08 0.09 0.07 0.06 0.06 0.06 0.08 0.08
0.00 0.01 0.01 0.01 0.03 0.04 0.05 0.04 0.03 0.02 0.02 0.03 0.04 0.05 0.05 0.06 0.07 0.07 0.07 0.08 0.08 0.08 0.05 0.03 0.03 0.03 0.04 0.04 0.06 0.06 0.06 0.07 0.07 0.06 0.06 0.06 0.09 0.09 0.07 0.07 0.07 0.08 0.08
0.01 0.01 0.02 0.02 0.02 0.03 0.03 0.03 0.02 0.02 0.02 0.03 0.03 0.03 0.04 0.06 0.07 0.08 0.08 0.07 0.07 0.08 0.07 0.05 0.03 0.03 0.03 0.02 0.02 0.03 0.05 0.06 0.06 0.06 0.06 0.05 0.06 0.09 0.09 0.08 0.08 0.07 0.07
0.01 0.01 0.02 0.02 0.02 0.02 0.02 0.02 0.03 0.04 0.04 0.03 0.03 0.04 0.05 0.07 0.06 0.05 0.04 0.05 0.04 0.04 0.03 0.03 0.04 0.04 0.04 0.03 0.03 0.02 0.04 0.05 0.05 0.05 0.03 0.03 0.03 0.05 0.07 0.07 0.07 0.06 0.05
0.01 0.01 0.01 0.02 0.02 0.02 0.03 0.04 0.04 0.05 0.06 0.08 0.06 0.05 0.04 0.04 0.03 0.03 0.03 0.03 0.03 0.02 0.02 0.03 0.03 0.03 0.03 0.03 0.03 0.03 0.03 0.05 0.05 0.04 0.02 0.02 0.03 0.03 0.05 0.06 0.07 0.07 0.06
0.02 0.02 0.02 0.02 0.01 0.02 0.03 0.04 0.04 0.05 0.05 0.05 0.05 0.06 0.05 0.05 0.04 0.03 0.03 0.03 0.03 0.02 0.02 0.02 0.01 0.01 0.02 0.02 0.03 0.03 0.04 0.06 0.04 0.04 0.04 0.03 0.05 0.04 0.03 0.04 0.04 0.06 0.06
0.01 0.02 0.03 0.03 0.03 0.03 0.03 0.04 0.04 0.04 0.04 0.05 0.03 0.05 0.06 0.05 0.05 0.05 0.04 0.03 0.03 0.02 0.02 0.02 0.01 0.01 0.02 0.02 0.03 0.03 0.03 0.04 0.05 0.05 0.04 0.04 0.05 0.03 0.03 0.03 0.04 0.05 0.05
0.01 0.02 0.03 0.04 0.03 0.04 0.04 0.04 0.04 0.04 0.04 0.05 0.04 0.05 0.04 0.04 0.04 0.05 0.04 0.04 0.04 0.03 0.02 0.02 0.03 0.03 0.03 0.03 0.05 0.05 0.03 0.03 0.04 0.04 0.04 0.05 0.04 0.04 0.05 0.06 0.05 0.06 0.07
0.01 0.02 0.02 0.03 0.02 0.02 0.02 0.02 0.03 0.04 0.04 0.04 0.04 0.04 0.03 0.04 0.04 0.03 0.03 0.04 0.04 0.03 0.02 0.02 0.03 0.03 0.04 0.05 0.06 0.06 0.04 0.02 0.02 0.03 0.04 0.04 0.04 0.04 0.06 0.06 0.06 0.07 0.07
0.01 0.02 0.02 0.02 0.01 0.01 0.02 0.02 0.02 0.03 0.03 0.03 0.02 0.02 0.02 0.03 0.03 0.03 0.03 0.03 0.03 0.03 0.03 0.03 0.03 0.04 0.04 0.06 0.07 0.05 0.03 0.01 0.01 0.02 0.02 0.02 0.02 0.03 0.05 0.07 0.08 0.08 0.07
0.01 0.01 0.01 0.01 0.01 0.01 0.01 0.02 0.02 0.02 0.02 0.02 0.02 0.02 0.02 0.03 0.04 0.04 0.03 0.02 0.02 0.03 0.03 0.03 0.04 0.04 0.05 0.04 0.03 0.03 0.02 0.01 0.02 0.02 0.02 0.01 0.01 0.01 0.02 0.05 0.06 0.06 0.05
0.02 0.01 0.01 0.00 0.00 0.01 0.01 0.01 0.01 0.01 0.01 0.02 0.02 0.03 0.04 0.03 0.02 0.02 0.02 0.02 0.02 0.02 0.02 0.02 0.02 0.02 0.03 0.04 0.03 0.03 0.03 0.02 0.02 0.02 0.02 0.01 0.01 0.01 0.02 0.04 0.05 0.04 0.03
0.01 0.01 0.01 0.01 0.00 0.01 0.01 0.01 0.01 0.01 0.02 0.02 0.03 0.02 0.02 0.01 0.01 0.02 0.02 0.02 0.02 0.03 0.02 0.03 0.03 0.04 0.03 0.05 0.05 0.06 0.06 0.05 0.05 0.05 0.03 0.01 0.01 0.01 0.03 0.05 0.04 0.03 0.02
0.01 0.01 0.01 0.01 0.01 0.01 0.00 0.01 0.01 0.01 0.01 0.01 0.01 0.01 0.01 0.01 0.01 0.01 0.02 0.02 0.03 0.03 0.03 0.04 0.04 0.03 0.02 0.04 0.06 0.09 0.11 0.11 0.09 0.07 0.05 0.03 0.02 0.02 0.03 0.05 0.04 0.03 0.02
0.01 0.02 0.01 0.01 0.00 0.00 0.01 0.01 0.01 0.01 0.01 0.00 0.00 0.00 0.00 0.01 0.01 0.02 0.02 0.03 0.03 0.04 0.04 0.03 0.03 0.03 0.04 0.05 0.07 0.08 0.08 0.08 0.08 0.07 0.07 0.06 0.05 0.04 0.04 0.04 0.02 0.02 0.04
0.03 0.03 0.02 0.01 0.01 0.01 0.01 0.01 0.01 0.01 0.01 0.01 0.00 0.00 0.01 0.01 0.01 0.02 0.02 0.03 0.03 0.03 0.03 0.02 0.02 0.03 0.04 0.06 0.07 0.07 0.06 0.05 0.06 0.06 0.06 0.05 0.05 0.05 0.04 0.03 0.02 0.02 0.04
0.03 0.03 0.03 0.02 0.01 0.01 0.01 0.01 0.01 0.01 0.01 0.01 0.01 0.02 0.02 0.02 0.02 0.03 0.03 0.03 0.03 0.02 0.02 0.02 0.02 0.02 0.02 0.02 0.03 0.04 0.05 0.05 0.05 0.04 0.04 0.04 0.04 0.04 0.03 0.02 0.02 0.03 0.04
0.02 0.02 0.03 0.02 0.02 0.02 0.02 0.01 0.01 0.01 0.01 0.02 0.02 0.02 0.04 0.04 0.04 0.04 0.04 0.04 0.04 0.03 0.03 0.02 0.01 0.01 0.01 0.01 0.02 0.04 0.04 0.04 0.05 0.04 0.04 0.03 0.03 0.03 0.02 0.02 0.02 0.02 0.02
0.01 0.02 0.02 0.02 0.02 0.02 0.01 0.02 0.01 0.01 0.01 0.01 0.01 0.01 0.02 0.03 0.05 0.04 0.03 0.02 0.03 0.02 0.02 0.02 0.02 0.01 0.01 0.01 0.02 0.02 0.02 0.03 0.03 0.03 0.03 0.02 0.02 0.02 0.02 0.02 0.02 0.03 0.04
0.02 0.02 0.02 0.01 0.01 0.01 0.01 0.01 0.01 0.01 0.01 0.01 0.01 0.01 0.01 0.01 0.01 0.01 0.01 0.01 0.02 0.03 0.03 0.02 0.02 0.01 0.01 0.01 0.01 0.02 0.02 0.02 0.02 0.02 0.02 0.02 0.02 0.03 0.03 0.04 0.04 0.05 0.06
MSLP
1008.93 1009.16 1009.39 1009.61 1009.81 1010.02 1010.26 1010.57 1010.95 1011.40 1011.90 1012.40 1012.86 1013.24 1013.49 1013.62 1013.63 1013.57 1013.48 1013.42 1013.42 1013.51 1013.70 1013.95 1014.25 1014.54 1014.79 1014.99 1015.11 1015.16 1015.15 1015.09 1015.00 1014.87 1014.71 1014.50 1014.23 1013.90 1013.52 1013.11 1012.69 1012.31 1011.99
1008.23 1008.45 1008.68 1008.89 1009.08 1009.28 1009.51 1009.83 1010.25 1010.76 1011.33 1011.92 1012.47 1012.91 1013.21 1013.34 1013.34 1013.24 1013.10 1012.98 1012.94 1013.00 1013.17 1013.42 1013.71 1013.99 1014.24 1014.41 1014.51 1014.53 1014.51 1014.45 1014.37 1014.27 1014.16 1014.00 1013.79 1013.51 1013.16 1012.76 1012.34 1011.93 1011.58
1007.33 1007.54 1007.78 1008.00 1008.21 1008.42 1008.68 1009.02 1009.48 1010.05 1010.71 1011.38 1012.01 1012.52 1012.87 1013.04 1013.04 1012.93 1012.76 1012.61 1012.54 1012.56 1012.70 1012.92 1013.18 1013.44 1013.65 1013.78 1013.84 1013.83 1013.78 1013.72 1013.66 1013.60 1013.54 1013.45 1013.31 1013.09 1012.79 1012.42 1012.00 1011.59 1011.21
1006.27 1006.48 1006.74 1007.00 1007.24 1007.49 1007.78 1008.17 1008.67 1009.30 1010.02 1010.76 1011.46 1012.04 1012.46 1012.67 1012.71 1012.62 1012.46 1012.31 1012.21 1012.22 1012.33 1012.51 1012.74 1012.94 1013.10 1013.18 1013.19 1013.14 1013.06 1012.99 1012.94 1012.91 1012.90 1012.87 1012.79 1012.63 1012.38 1012.05 1011.65 1011.23 1010.83
1005.12 1005.34 1005.64 1005.94 1006.23 1006.53 1006.87 1007.30 1007.84 1008.51 1009.27 1010.06 1010.82 1011.47 1011.95 1012.23 1012.33 1012.29 1012.17 1012.04 1011.97 1011.97 1012.06 1012.22 1012.40 1012.56 1012.66 1012.69 1012.64 1012.54 1012.42 1012.32 1012.26 1012.25 1012.26 1012.26 1012.23 1012.12 1011.91 1011.60 1011.22 1010.81 1010.40
1003.99 1004.22 1004.55 1004.91 1005.26 1005.62 1006.00 1006.46 1007.02 1007.71 1008.49 1009.31 1010.11 1010.81 1011.35 1011.71 1011.89 1011.93 1011.88 1011.82 1011.78 1011.81 1011.90 1012.04 1012.19 1012.31 1012.35 1012.32 1012.22 1012.06 1011.89 1011.75 1011.66 1011.62 1011.62 1011.63 1011.61 1011.52 1011.33 1011.05 1010.68 1010.27 1009.86
1002.96 1003.21 1003.58 1003.99 1004.40 1004.80 1005.21 1005.69 1006.26 1006.94 1007.71 1008.54 1009.36 1010.09 1010.70 1011.14 1011.42 1011.55 1011.60 1011.62 1011.65 1011.72 1011.83 1011.97 1012.10 1012.18 1012.18 1012.10 1011.93 1011.72 1011.49 1011.29 1011.13 1011.04 1010.99 1010.96 1010.91 1010.80 1010.62 1010.35 1010.00 1009.60 1009.20
1002.13 1002.39 1002.79 1003.24 1003.69 1004.12 1004.56 1005.03 1005.59 1006.25 1007.00 1007.81 1008.63 1009.40 1010.06 1010.58 1010.95 1011.20 1011.36 1011.47 1011.57 1011.70 1011.84 1011.98 1012.09 1012.15 1012.11 1011.98 1011.76 1011.48 1011.18 1010.89 1010.65 1010.47 1010.33 1010.22 1010.11 1009.96 1009.76 1009.49 1009.16 1008.79 1008.42
1001.54 1001.81 1002.23 1002.70 1003.17 1003.62 1004.06 1004.53 1005.06 1005.69 1006.41 1007.20 1008.02 1008.81 1009.51 1010.11 1010.57 1010.92 1011.18 1011.38 1011.56 1011.73 1011.90 1012.05 1012.15 1012.18 1012.10 1011.93 1011.65 1011.31 1010.92 1010.54 1010.19 1009.89 1009.64 1009.42 1009.22 1009.01 1008.77 1008.49 1008.19 1007.87 1007.55
1001.19 1001.46 1001.89 1002.37 1002.85 1003.30 1003.74 1004.19 1004.71 1005.31 1006.00 1006.77 1007.59 1008.39 1009.14 1009.79 1010.34 1010.77 1011.12 1011.39 1011.63 1011.84 1012.02 1012.16 1012.24 1012.23 1012.12 1011.90 1011.57 1011.16 1010.69 1010.21 1009.74 1009.30 1008.91 1008.57 1008.26 1007.96 1007.68 1007.40 1007.13 1006.87 1006.63
1001.06 1001.34 1001.75 1002.23 1002.70 1003.15 1003.59 1004.04 1004.54 1005.13 1005.81 1006.57 1007.39 1008.21 1008.99 1009.69 1010.30 1010.79 1011.20 1011.52 1011.79 1012.00 1012.18 1012.30 1012.34 1012.30 1012.15 1011.87 1011.49 1011.01 1010.46 1009.87 1009.28 1008.71 1008.18 1007.70 1007.27 1006.89 1006.56 1006.28 1006.04 1005.84 1005.70
1001.09 1001.36 1001.77 1002.23 1002.69 1003.14 1003.58 1004.04 1004.55 1005.14 1005.83 1006.60 1007.43 1008.26 1009.07 1009.81 1010.45 1010.98 1011.41 1011.75 1012.02 1012.23 1012.37 1012.45 1012.46 1012.36 1012.16 1011.84 1011.41 1010.87 1010.24 1009.56 1008.85 1008.15 1007.48 1006.87 1006.32 1005.85 1005.47 1005.17 1004.97 1004.84 1004.78
1001.21 1001.48 1001.87 1002.32 1002.77 1003.22 1003.68 1004.16 1004.70 1005.32 1006.03 1006.82 1007.66 1008.51 1009.33 1010.08 1010.74 1011.29 1011.72 1012.06 1012.31 1012.48 1012.59 1012.62 1012.57 1012.43 1012.19 1011.82 1011.34 1010.75 1010.05 1009.29 1008.48 1007.67 1006.88 1006.14 1005.48 1004.92 1004.48 1004.16 1003.97 1003.89 1003.91
1001.36 1001.63 1002.02 1002.45 1002.91 1003.37 1003.85 1004.37 1004.95 1005.61 1006.35 1007.16 1008.01 1008.87 1009.69 1010.45 1011.10 1011.64 1012.06 1012.38 1012.60 1012.74 1012.80 1012.79 1012.70 1012.51 1012.23 1011.83 1011.32 1010.68 1009.94 1009.11 1008.23 1007.32 1006.42 1005.57 1004.81 1004.16 1003.65 1003.29 1003.09 1003.03 1003.10
1001.47 1001.77 1002.16 1002.59 1003.06 1003.55 1004.06 1004.63 1005.25 1005.95 1006.72 1007.54 1008.40 1009.25 1010.06 1010.80 1011.43 1011.95 1012.36 1012.65 1012.85 1012.96 1012.99 1012.95 1012.82 1012.62 1012.31 1011.89 1011.35 1010.70 1009.93 1009.05 1008.11 1007.13 1006.15 1005.21 1004.35 1003.62 1003.03 1002.62 1002.38 1002.31 1002.38
1001.53 1001.86 1002.26 1002.72 1003.20 1003.73 1004.28 1004.89 1005.56 1006.29 1007.07 1007.90 1008.74 1009.57 1010.36 1011.07 1011.67 1012.17 1012.56 1012.84 1013.03 1013.13 1013.15 1013.09 1012.96 1012.75 1012.43 1012.01 1011.47 1010.81 1010.02 1009.13 1008.16 1007.13 1006.09 1005.08 1004.15 1003.34 1002.68 1002.20 1001.90 1001.78 1001.82
1001.52 1001.88 1002.32 1002.80 1003.33 1003.89 1004.49 1005.14 1005.84 1006.59 1007.37 1008.19 1009.00 1009.80 1010.54 1011.21 1011.79 1012.27 1012.65 1012.93 1013.12 1013.23 1013.27 1013.23 1013.11 1012.91 1012.61 1012.20 1011.67 1011.02 1010.24 1009.35 1008.36 1007.32 1006.25 1005.21 1004.22 1003.35 1002.62 1002.07 1001.69 1001.50 1001.47
1001.42 1001.84 1002.32 1002.85 1003.42 1004.03 1004.68 1005.36 1006.08 1006.84 1007.61 1008.40 1009.17 1009.92 1010.61 1011.24 1011.79 1012.26 1012.64 1012.94 1013.16 1013.30 1013.37 1013.36 1013.28 1013.10 1012.83 1012.44 1011.94 1011.31 1010.56 1009.69 1008.72 1007.69 1006.63 1005.58 1004.58 1003.67 1002.90 1002.28 1001.84 1001.56 1001.45
1001.25 1001.74 1002.28 1002.86 1003.49 1004.15 1004.84 1005.55 1006.29 1007.05 1007.80 1008.55 1009.28 1009.97 1010.62 1011.21 1011.74 1012.20 1012.59 1012.92 1013.17 1013.36 1013.48 1013.51 1013.47 1013.33 1013.08 1012.73 1012.26 1011.66 1010.95 1010.12 1009.21 1008.22 1007.20 1006.18 1005.21 1004.30 1003.52 1002.87 1002.37 1002.02 1001.82
1001.04 1001.59 1002.19 1002.84 1003.53 1004.24 1004.98 1005.73 1006.49 1007.24 1007.98 1008.69 1009.37 1010.02 1010.63 1011.19 1011.70 1012.17 1012.58 1012.93 1013.22 1013.45 1013.61 1013.69 1013.68 1013.57 1013.36 1013.04 1012.60 1012.05 1011.39 1010.62 1009.78 1008.87 1007.93 1006.98 1006.06 1005.21 1004.45 1003.80 1003.27 1002.88 1002.61
1000.79 1001.41 1002.08 1002.80 1003.55 1004.33 1005.11 1005.90 1006.67 1007.43 1008.16 1008.85 1009.51 1010.12 1010.71 1011.25 1011.75 1012.22 1012.64 1013.02 1013.34 1013.60 1013.79 1013.89 1013.91 1013.82 1013.64 1013.34 1012.95 1012.44 1011.84 1011.16 1010.40 1009.60 1008.76 1007.92 1007.10 1006.33 1005.63 1005.02 1004.51 1004.10 1003.80
1000.57 1001.25 1001.98 1002.76 1003.57 1004.40 1005.24 1006.06 1006.86 1007.63 1008.36 1009.05 1009.70 1010.31 1010.88 1011.41 1011.92 1012.39 1012.82 1013.21 1013.54 1013.81 1014.01 1014.12 1014.14 1014.07 1013.90 1013.63 1013.27 1012.82 1012.29 1011.70 1011.05 1010.36 1009.65 1008.94 1008.24 1007.59 1006.98 1006.44 1005.97 1005.59 1005.27
1000.40 1001.13 1001.92 1002.75 1003.61 1004.49 1005.36 1006.21 1007.04 1007.83 1008.58 1009.28 1009.94 1010.56 1011.13 1011.68 1012.18 1012.65 1013.08 1013.46 1013.79 1014.05 1014.23 1014.33 1014.35 1014.27 1014.11 1013.87 1013.55 1013.17 1012.72 1012.22 1011.69 1011.13 1010.55 1009.98 1009.42 1008.88 1008.38 1007.93 1007.53 1007.19 1006.89
1000.35 1001.11 1001.94 1002.80 1003.69 1004.58 1005.48 1006.36 1007.21 1008.02 1008.79 1009.52 1010.20 1010.84 1011.43 1011.98 1012.50 1012.96 1013.38 1013.74 1014.04 1014.27 1014.43 1014.50 1014.50 1014.42 1014.27 1014.06 1013.78 1013.46 1013.10 1012.71 1012.29 1011.86 1011.42 1010.97 1010.54 1010.12 1009.73 1009.37 1009.04 1008.75 1008.49
1000.45 1001.23 1002.06 1002.93 1003.81 1004.71 1005.60 1006.48 1007.34 1008.16 1008.95 1009.70 1010.41 1011.08 1011.70 1012.27 1012.78 1013.24 1013.64 1013.98 1014.24 1014.43 1014.55 1014.60 1014.58 1014.49 1014.36 1014.18 1013.96 1013.72 1013.45 1013.15 1012.85 1012.53 1012.21 1011.88 1011.56 1011.24 1010.94 1010.65 1010.39 1010.15 1009.93
1000.73 1001.51 1002.32 1003.15 1004.01 1004.86 1005.72 1006.57 1007.41 1008.23 1009.03 1009.80 1010.53 1011.23 1011.87 1012.45 1012.97 1013.43 1013.80 1014.11 1014.33 1014.48 1014.57 1014.59 1014.56 1014.48 1014.38 1014.25 1014.09 1013.93 1013.75 1013.56 1013.35 1013.13 1012.91 1012.67 1012.43 1012.18 1011.94 1011.71 1011.49 1011.29 1011.11
Thickness
5799 5799 5798 5797 5795 5792 5789 5787 5785 5784 5781 5777 5774 5772 5771 5772 5772 5772 5771 5770 5769 5767 5765 5763 5761 5759 5757 5756 5754 5752 5750 5748 5747 5744 5743 5745 5747 5747 5747 5748 5747 5747 5746
5796 5797 5797 5795 5793 5791 5789 5787 5786 5784 5782 5779 5776 5774 5773 5772 5771 5771 5770 5769 5768 5767 5765 5762 5760 5759 5756 5754 5753 5751 5747 5746 5745 5742 5738 5736 5739 5742 5746 5745 5745 5746 5745
5795 5795 5795 5794 5793 5790 5789 5789 5786 5785 5782 5780 5776 5773 5771 5770 5768 5767 5767 5768 5767 5766 5764 5762 5760 5758 5756 5753 5752 5750 5747 5744 5743 5743 5738 5732 5730 5734 5740 5742 5743 5743 5742
5799 5796 5795 5793 5792 5791 5791 5788 5786 5783 5781 5779 5775 5771 5767 5764 5765 5765 5765 5765 5765 5764 5762 5761 5759 5757 5755 5753 5752 5751 5748 5744 5741 5740 5739 5737 5735 5731 5731 5736 5739 5740 5739
5801 5799 5798 5796 5795 5793 5790 5788 5785 5782 5780 5777 5774 5770 5766 5764 5764 5763 5762 5762 5762 5761 5760 5759 5758 5756 5754 5753 5751 5749 5747 5743 5740 5738 5736 5735 5733 5731 5728 5728 5731 5734 5736
5802 5801 5800 5797 5794 5793 5790 5786 5782 5779 5778 5775 5772 5769 5765 5762 5760 5759 5758 5758 5758 5758 5758 5757 5756 5754 5753 5751 5749 5747 5745 5742 5740 5739 5737 5734 5732 5730 5728 5726 5727 5728 5732
5800 5798 5796 5794 5793 5791 5788 5784 5780 5777 5775 5773 5770 5767 5765 5762 5758 5757 5756 5755 5755 5754 5754 5755 5754 5752 5751 5750 5748 5745 5743 5740 5738 5737 5735 5735 5733 5732 5729 5727 5726 5725 5727
5798 5797 5797 5795 5793 5790 5786 5783 5778 5775 5773 5770 5767 5765 5762 5760 5758 5757 5755 5754 5753 5753 5752 5752 5751 5750 5749 5748 5745 5743 5741 5739 5737 5736 5734 5733 5732 5732 5730 5728 5724 5721 5722
5797 5796 5796 5794 5792 5789 5786 5783 5778 5774 5771 5768 5765 5763 5761 5759 5757 5756 5754 5753 5752 5751 5750 5750 5748 5747 5746 5744 5742 5740 5738 5737 5735 5734 5732 5731 5731 5730 5729 5727 5725 5720 5716
5794 5794 5793 5792 5790 5787 5784 5780 5776 5772 5769 5766 5763 5762 5760 5758 5756 5754 5752 5751 5749 5748 5747 5746 5745 5743 5742 5741 5739 5737 5735 5733 5732 5731 5729 5728 5727 5726 5725 5724 5722 5720 5717
5791 5791 5791 5790 5788 5785 5781 5777 5773 5769 5766 5764 5762 5759 5757 5755 5753 5751 5749 5747 5746 5744 5743 5742 5741 5740 5738 5737 5735 5733 5732 5730 5728 5727 5726 5724 5723 5722 5721 5719 5718 5716 5715
5789 5788 5787 5785 5782 5779 5777 5773 5770 5767 5765 5762 5759 5756 5754 5752 5749 5746 5745 5743 5741 5741 5740 5738 5737 5736 5734 5733 5731 5729 5728 5726 5724 5723 5722 5720 5720 5717 5716 5715 5713 5712 5712
5783 5782 5781 5779 5777 5775 5773 5770 5767 5764 5762 5759 5755 5753 5751 5748 5745 5744 5742 5740 5738 5737 5736 5734 5733 5731 5730 5729 5727 5726 5724 5722 5721 5720 5718 5716 5714 5713 5711 5710 5709 5709 5708
5778 5777 5776 5775 5774 5772 5769 5766 5763 5761 5758 5754 5751 5748 5746 5745 5743 5741 5738 5736 5735 5733 5732 5730 5729 5727 5726 5724 5723 5721 5719 5717 5716 5715 5714 5713 5711 5709 5708 5706 5704 5704 5702
5773 5773 5772 5771 5770 5767 5765 5763 5760 5758 5754 5750 5746 5744 5743 5741 5738 5736 5734 5732 5731 5729 5728 5726 5724 5723 5721 5720 5718 5716 5715 5713 5711 5710 5709 5708 5708 5707 5705 5703 5701 5699 5697
5770 5770 5769 5768 5765 5763 5761 5758 5756 5753 5750 5746 5742 5740 5738 5735 5733 5731 5730 5728 5726 5725 5723 5721 5719 5717 5717 5716 5714 5712 5711 5708 5706 5704 5703 5703 5703 5702 5700 5699 5697 5695 5692
5766 5765 5765 5763 5762 5760 5758 5754 5751 5748 5744 5742 5738 5735 5732 5729 5727 5727 5724 5722 5721 5719 5717 5715 5713 5712 5711 5710 5708 5706 5704 5702 5700 5699 5697 5698 5698 5696 5694 5693 5691 5689 5689
5762 5761 5760 5760 5758 5756 5753 5750 5746 5742 5739 5735 5732 5730 5727 5724 5723 5721 5719 5717 5715 5713 5711 5710 5708 5706 5705 5704 5702 5700 5698 5696 5694 5693 5692 5691 5691 5690 5688 5687 5685 5684 5684
5759 5758 5757 5755 5753 5750 5747 5743 5738 5735 5731 5728 5726 5724 5722 5719 5717 5714 5713 5711 5709 5707 5705 5704 5702 5700 5699 5697 5695 5693 5690 5689 5688 5687 5686 5684 5684 5684 5682 5680 5679 5678 5679
5754 5752 5751 5748 5745 5742 5740 5735 5731 5727 5724 5722 5721 5719 5717 5714 5712 5709 5707 5705 5702 5701 5699 5697 5695 5693 5691 5690 5688 5685 5683 5681 5681 5680 5680 5679 5678 5677 5675 5674 5672 5672 5673
5746 5745 5742 5739 5737 5735 5732 5727 5724 5721 5720 5718 5715 5712 5710 5708 5705 5703 5700 5698 5696 5693 5691 5689 5687 5685 5683 5682 5680 5678 5676 5675 5674 5673 5673 5673 5672 5671 5669 5667 5667 5667 5667
5737 5736 5732 5730 5729 5727 5724 5719 5717 5717 5714 5711 5708 5705 5703 5701 5699 5695 5693 5690 5688 5685 5682 5680 5678 5676 5675 5673 5672 5670 5669 5668 5666 5666 5666 5666 5665 5663 5662 5661 5661 5660 5659
5726 5726 5724 5721 5720 5719 5717 5712 5711 5709 5706 5703 5700 5698 5696 5693 5691 5688 5685 5682 5679 5676 5674 5671 5669 5667 5666 5665 5663 5662 5661 5660 5659 5659 5659 5658 5657 5656 5656 5655 5654 5654 5653
5717 5716 5715 5712 5710 5710 5709 5707 5704 5701 5698 5695 5693 5690 5688 5685 5682 5679 5677 5674 5671 5668 5665 5663 5661 5659 5658 5656 5655 5654 5652 5651 5650 5650 5649 5649 5648 5648 5648 5647 5647 5647 5646
5708 5707 5706 5704 5704 5703 5702 5700 5697 5694 5690 5687 5685 5683 5680 5677 5674 5671 5668 5666 5665 5661 5658 5656 5654 5651 5650 5649 5646 5645 5644 5642 5641 5640 5639 5640 5639 5639 5639 5639 5639 5639 5638
5699 5699 5698 5697 5696 5695 5693 5692 5690 5686 5683 5679 5677 5675 5672 5669 5666 5663 5661 5660 5657 5655 5652 5649 5646 5645 5643 5641 5639 5637 5635 5633 5632 5631 5631 5630 5630 5630 5630 5630 5631 5631 5631